Find Starlink 11701

NORAD ID: 63760 Int'l Des: 2025-089 Owner: SPXS Country: US Constellation: starlink operational
LEOCIRCULAR

リアルタイム位置

3D地球を読み込み中...

Starlink 11701について

説明を読み込み中...

次回通過

Passes for default location (London). Set your location on the main map for personalized predictions.

高度履歴

Loading altitude history...

軌道要素

1 63760U 25089K 26127.46701325 .00149762 00000-0 11448-2 0 9991
2 63760 42.9999 297.5940 0002437 247.5005 112.5605 15.70940366 59387
Epoch: May 7, 2026 • Age: 10 hours

現在のステータス

高度 363.6 km
速度 7.69 km/s
衛星直下点 -33.33°S, 26.43°W
打ち上げ日 Apr 29, 2025
運用期間 1 years
タイプ internet

技術仕様

分類 Payload
質量 960.00 kg
乾燥質量 910.00 kg
総質量 960.00 kg
長さ 0.30 m
直径 4.10 m
スパン 29.00 m
形状 Box + pan
製造者 SPXS
バスタイプ Starlink V2MD
フェーズステータス In Orbit
所有者/国 SPXS/US

Most Searched